Tracking 31027 objects as of 19-Jul-2025
HD Live streaming from Space Station
objects crossing your sky now

SL-12 R/B(AUX MOTOR)

Track SL-12 R/B(AUX MOTOR) now!
10-day predictions


NORAD ID: 19537
Int'l Code: 1988-085G
Perigee: 684.2 km
Apogee: 18,193.4 km
Inclination: 65.1 °
Period: 329.7 minutes
Semi major axis: 15809 km
RCS: 0.8248 m2 (medium)
Launch date: September 16, 1988
Source: Commonwealth of Independent States (former USSR) (CIS)
Launch site: TYURATAM MISSILE AND SPACE COMPLEX (TTMTR)

Note: This is a ROCKET BODY
Your satellite tracking list
FENGYUN 1C DEB
Track 1 satellite(s)




NASA's NSSDC Master Catalog

Two Line Element Set (TLE):
1 19537U 88085G   25199.07858615  .00000072  00000-0  51205-3 0  9995
2 19537  65.1338  84.3792 5537433  96.0213 326.4166  4.36728767580200
Source of the keplerian elements: AFSPC